{"data":{"norad_id":49072,"intl_designator":"2021-074B","name":"TIANHUI 2-02B","alt_names":[],"object_type":"PAYLOAD","status":"ACTIVE","operator":null,"country":"PRC","launch_date":"2021-08-18","launch_site_code":"TAISC","launch_vehicle":null,"mission":null,"orbit_class":"UNKNOWN","rcs_meters":null,"size_class":null,"mass_kg":null,"dimensions":null,"purposes":[],"wikipedia_slug":null,"has_3d_model":false,"image_url":null,"decayed_at":null,"tle_current":{"epoch":"2026-05-24T10:41:59.940096Z","epoch_age_seconds":132999,"freshness":"FRESH","line1":"1 49072U 21074B   26144.44583264  .00001346  00000+0  72053-4 0  9993","line2":"2 49072  97.4809 147.9819 0001931  97.4179 262.7273 15.16732770263673","mean_motion":15.1673277,"eccentricity":0.0001931,"inclination_deg":97.4809,"raan_deg":147.9819,"arg_perigee_deg":97.4179,"mean_anomaly_deg":262.7273,"bstar":7.2053e-5,"rev_number":26367,"period_min":94.940916981704,"perigee_km":514.39182303378,"apogee_km":517.05423177636,"semimajor_km":6893.8600274051,"source":"CELESTRAK","updated_at":"2026-05-25T13:37:57.053987Z"}}}